This demonstration page uses our WeatherBlox Daily Observations layout. Learn more.

Left ArrowRight Arrow

38.89511, -77.03637

Hourly Observations for July 15, 2015

Temp ( °F °C ) Dew Point ( °F °C ) Humidity (%) Winds ( mph kmh ) Pressure ( in mb ) Visibility ( mi km ) Precip ( " mm )
12:52 am 00:52 Cloudy with Light Rain 82 27.8 72 22.2 72 72 SW 3 6 29.54 1001 10 16 0.00 0.03
1:45 am 01:45 Cloudy with Light Rain 79 26 68 20 70 70 NNW 12 19 29.56 1001 10 16 0.01 0.25
1:52 am 01:52 Cloudy with Light Rain 77 25 68 20 74 74 NNW 17 28 29.57 1001 10 16 0.01 0.25
2:52 am 02:52 Partly Cloudy 75 23.9 66 18.9 74 74 NW 9 15 29.56 1001 10 16 0.00 0.03
3:52 am 03:52 Mostly Clear 75 23.9 66 18.9 74 74 Calm 29.57 1002 10 16 0.00 0.00
4:52 am 04:52 Partly Cloudy 74 23.3 66 18.9 76 76 WNW 6 9 29.57 1002 10 16 0.00 0.00
5:52 am 05:52 Partly Cloudy 75 23.9 65 18.3 71 71 NW 7 11 29.60 1002 10 16 0.00 0.00
6:52 am 06:52 Partly Cloudy 76 24.4 65 18.3 69 69 W 7 11 29.61 1003 10 16 0.00 0.00
7:52 am 07:52 Mostly Cloudy 78 25.6 66 18.9 67 67 W 7 11 29.63 1003 10 16 0.00 0.00
8:06 am 08:06 Mostly Cloudy 79 26 64 18 61 61 WNW 12 19 29.65 1004 10 16 0.00 0.00
8:52 am 08:52 Mostly Cloudy 79 26.1 66 18.9 65 65 NNW 14 22 29.65 1004 10 16 0.00 0.00
9:52 am 09:52 Mostly Cloudy 81 27.2 68 20 65 65 VRB 7 11 29.67 1005 10 16 0.00 0.00
10:36 am 10:36 Mostly Cloudy 81 27 66 19 62 62 NNW 16 26 29.68 1005 10 16 0.00 0.00
10:52 am 10:52 Cloudy 81 27.2 68 20 65 65 NNW 12 19 29.69 1005 10 16 0.00 0.00
11:52 am 11:52 Cloudy with Light Rain 79 26.1 67 19.4 67 67 N 16 26 29.71 1006 10 16 0.00 0.03
12:52 pm 12:52 Cloudy 81 27.2 69 20.6 67 67 N 8 13 29.71 1006 10 16 0.00 0.03
1:52 pm 13:52 Mostly Cloudy 85 29.4 68 20 57 57 N 12 19 29.72 1006 10 16 0.00 0.00
2:52 pm 14:52 Mostly Cloudy 87 30.6 69 20.6 55 55 N 9 15 29.72 1007 10 16 0.00 0.00
3:52 pm 15:52 Mostly Cloudy 86 30 67 19.4 53 53 N 13 20 29.73 1007 10 16 0.00 0.00
4:52 pm 16:52 Mostly Cloudy 87 30.6 68 20 53 53 N 12 19 29.75 1007 10 16 0.00 0.00
5:11 pm 17:11 Mostly Cloudy 88 31 68 20 52 52 N 13 20 29.74 1007 10 16 0.00 0.00
5:52 pm 17:52 Mostly Cloudy 84 28.9 70 21.1 63 63 NNE 9 15 29.75 1008 10 16 0.00 0.00
6:52 pm 18:52 Mostly Cloudy 85 29.4 68 20 57 57 N 9 15 29.76 1008 10 16 0.00 0.00
7:52 pm 19:52 Mostly Cloudy 83 28.3 67 19.4 59 59 N 9 15 29.79 1009 10 16 0.00 0.00
8:52 pm 20:52 Partly Cloudy 81 27.2 66 18.9 61 61 NNE 13 20 29.82 1010 10 16 0.00 0.00
9:52 pm 21:52 Mostly Clear 79 26.1 65 18.3 62 62 NNE 17 28 29.85 1011 10 16 0.00 0.00
10:52 pm 22:52 Clear 77 25 60 15.6 56 56 N 16 26 29.89 1012 10 16 0.00 0.00
11:52 pm 23:52 Clear 74 23.3 60 15.6 62 62 NNE 16 26 29.91 1013 10 16 0.00 0.00

Powered by AerisWeather